C6048 PANC-PAGA

Flight info

Callsign C6048
Flight time 2h 24m
Altitude 1500
Route VFR
Aircraft H60/L-DGILORTUVY/SB2

Departure

Time 2026-05-06 00:02
Airport Ted Stevens Anchorage International Airport (PANC)

Arrival

Time 2026-05-06 02:27
Airport Edward G. Pitka Sr Airport (PAGA)
Time Latitude Longitude Altitude Speed Heading
2026-05-05 23:33 61.16623 -149.97035 128 ft 0 kts 58°
2026-05-05 23:55 61.16622 -149.97034 105 ft 1 kts 14°
2026-05-05 23:55 61.16621 -149.97033 105 ft 2 kts 265°
2026-05-05 23:55 61.16612 -149.97080 102 ft 7 kts 244°
2026-05-05 23:56 61.16596 -149.97201 115 ft 7 kts 267°
2026-05-05 23:56 61.16594 -149.97278 115 ft 5 kts 269°
2026-05-05 23:56 61.16595 -149.97368 115 ft 9 kts 273°
2026-05-05 23:56 61.16613 -149.97455 113 ft 4 kts 343°
2026-05-05 23:57 61.16653 -149.97431 114 ft 9 kts 30°
2026-05-05 23:57 61.16722 -149.97353 113 ft 11 kts 25°
2026-05-05 23:57 61.16773 -149.97332 117 ft 7 kts
2026-05-05 23:57 61.16827 -149.97292 118 ft 10 kts 54°
2026-05-05 23:58 61.16856 -149.97163 116 ft 10 kts 68°
2026-05-05 23:58 61.16878 -149.97050 113 ft 7 kts 69°
2026-05-05 23:58 61.16892 -149.96980 114 ft 6 kts 66°
2026-05-05 23:58 61.16921 -149.96854 113 ft 10 kts 52°
2026-05-05 23:59 61.16981 -149.96817 117 ft 13 kts
2026-05-05 23:59 61.17084 -149.96815 114 ft 13 kts
2026-05-05 23:59 61.17128 -149.96726 115 ft 6 kts 83°
2026-05-05 23:59 61.17129 -149.96606 116 ft 12 kts 90°
2026-05-06 00:00 61.17129 -149.96456 114 ft 9 kts 90°
2026-05-06 00:00 61.17130 -149.96327 115 ft 11 kts 90°
2026-05-06 00:00 61.17130 -149.96155 116 ft 11 kts 90°
2026-05-06 00:00 61.17129 -149.95975 115 ft 10 kts 90°
2026-05-06 00:01 61.17119 -149.95888 114 ft 3 kts 173°
2026-05-06 00:01 61.17094 -149.95895 116 ft 11 kts 192°
2026-05-06 00:01 61.16991 -149.95977 119 ft 25 kts 263°
2026-05-06 00:01 61.16982 -149.96757 200 ft 87 kts 271°
2026-05-06 00:02 61.17013 -149.98381 406 ft 136 kts 274°
2026-05-06 00:02 61.17565 -150.00057 692 ft 154 kts 319°
2026-05-06 00:02 61.18409 -150.01519 1006 ft 163 kts 322°
2026-05-06 00:02 61.19319 -150.03094 1118 ft 173 kts 320°
2026-05-06 00:03 61.20203 -150.04741 1459 ft 164 kts 319°
2026-05-06 00:03 61.21000 -150.06193 2138 ft 143 kts 321°
2026-05-06 00:03 61.21741 -150.07474 2279 ft 140 kts 322°
2026-05-06 00:03 61.22476 -150.08754 2316 ft 139 kts 322°
2026-05-06 00:04 61.23219 -150.10045 2325 ft 136 kts 322°
2026-05-06 00:04 61.23959 -150.11320 2335 ft 139 kts 322°
2026-05-06 00:04 61.24699 -150.12593 2338 ft 139 kts 322°
2026-05-06 00:04 61.25446 -150.13874 2340 ft 138 kts 322°
2026-05-06 00:05 61.26932 -150.16443 2342 ft 140 kts 322°
2026-05-06 00:05 61.27675 -150.17728 2343 ft 138 kts 322°
2026-05-06 00:05 61.28418 -150.19008 2345 ft 139 kts 322°
2026-05-06 00:06 61.29161 -150.20297 2345 ft 138 kts 322°
2026-05-06 00:06 61.29904 -150.21590 2347 ft 139 kts 322°
2026-05-06 00:06 61.30647 -150.22884 2348 ft 139 kts 322°
2026-05-06 00:06 61.31392 -150.24176 2346 ft 139 kts 322°
2026-05-06 00:07 61.32122 -150.25439 2346 ft 139 kts 322°
2026-05-06 00:07 61.32865 -150.26728 2345 ft 139 kts 322°
2026-05-06 00:07 61.33612 -150.28021 2345 ft 139 kts 322°
2026-05-06 00:07 61.34356 -150.29316 2345 ft 139 kts 322°
2026-05-06 00:08 61.35097 -150.30607 2347 ft 140 kts 322°
2026-05-06 00:08 61.35839 -150.31902 2348 ft 138 kts 322°
2026-05-06 00:08 61.36580 -150.33192 2348 ft 140 kts 322°
2026-05-06 00:08 61.37325 -150.34486 2348 ft 139 kts 322°
2026-05-06 00:09 61.38070 -150.35780 2348 ft 140 kts 322°
2026-05-06 00:09 61.38815 -150.37080 2348 ft 140 kts 322°
2026-05-06 00:09 61.39557 -150.38375 2347 ft 138 kts 322°
2026-05-06 00:09 61.40299 -150.39668 2348 ft 140 kts 322°
2026-05-06 00:10 61.41040 -150.40958 2350 ft 139 kts 322°
2026-05-06 00:10 61.41776 -150.42242 2347 ft 139 kts 322°
2026-05-06 00:10 61.42517 -150.43544 2348 ft 138 kts 322°
2026-05-06 00:10 61.43258 -150.44845 2349 ft 139 kts 322°
2026-05-06 00:11 61.43999 -150.46148 2349 ft 139 kts 322°
2026-05-06 00:11 61.44739 -150.47441 2348 ft 137 kts 322°
2026-05-06 00:11 61.45481 -150.48735 2349 ft 139 kts 322°
2026-05-06 00:11 61.46224 -150.50025 2349 ft 140 kts 321°
2026-05-06 00:12 61.46977 -150.51312 2345 ft 139 kts 322°
2026-05-06 00:12 61.47725 -150.52589 2349 ft 139 kts 322°
2026-05-06 00:12 61.48473 -150.53865 2348 ft 138 kts 322°
2026-05-06 00:12 61.49220 -150.55136 2347 ft 137 kts 321°
2026-05-06 00:13 61.49977 -150.56428 2347 ft 139 kts 322°
2026-05-06 00:13 61.50699 -150.57663 2349 ft 135 kts 322°
2026-05-06 00:13 61.51422 -150.58898 2355 ft 135 kts 322°
2026-05-06 00:13 61.52147 -150.60136 2354 ft 135 kts 321°
2026-05-06 00:14 61.52874 -150.61376 2356 ft 134 kts 321°
2026-05-06 00:14 61.53598 -150.62615 2357 ft 134 kts 321°
2026-05-06 00:14 61.54323 -150.63855 2356 ft 135 kts 321°
2026-05-06 00:14 61.55048 -150.65096 2357 ft 135 kts 321°
2026-05-06 00:15 61.55770 -150.66333 2344 ft 134 kts 321°
2026-05-06 00:15 61.56495 -150.67578 2345 ft 135 kts 321°
2026-05-06 00:15 61.57209 -150.68805 2346 ft 135 kts 321°
2026-05-06 00:15 61.57934 -150.70052 2350 ft 135 kts 321°
2026-05-06 00:16 61.58659 -150.71298 2348 ft 135 kts 321°
2026-05-06 00:16 61.59382 -150.72542 2348 ft 135 kts 321°
2026-05-06 00:16 61.60104 -150.73785 2348 ft 134 kts 321°
2026-05-06 00:16 61.60831 -150.75035 2348 ft 135 kts 321°
2026-05-06 00:17 61.61553 -150.76278 2346 ft 134 kts 321°
2026-05-06 00:17 61.62278 -150.77527 2345 ft 135 kts 321°
2026-05-06 00:17 61.63000 -150.78771 2345 ft 135 kts 321°
2026-05-06 00:17 61.63726 -150.80024 2345 ft 134 kts 321°
2026-05-06 00:18 61.64438 -150.81251 2349 ft 135 kts 321°
2026-05-06 00:18 61.65164 -150.82501 2348 ft 135 kts 321°
2026-05-06 00:18 61.65891 -150.83750 2348 ft 136 kts 321°
2026-05-06 00:18 61.66617 -150.85000 2348 ft 135 kts 321°
2026-05-06 00:19 61.67342 -150.86247 2345 ft 135 kts 321°
2026-05-06 00:19 61.68068 -150.87499 2345 ft 134 kts 321°
2026-05-06 00:19 61.68794 -150.88751 2346 ft 135 kts 321°
2026-05-06 00:19 61.69520 -150.90003 2346 ft 135 kts 321°
2026-05-06 00:20 61.70233 -150.91233 2344 ft 135 kts 321°
2026-05-06 00:20 61.70959 -150.92486 2345 ft 134 kts 321°
2026-05-06 00:20 61.71686 -150.93741 2346 ft 136 kts 321°
2026-05-06 00:20 61.72411 -150.94993 2346 ft 134 kts 321°
2026-05-06 00:21 61.73135 -150.96246 2345 ft 135 kts 321°
2026-05-06 00:21 61.73860 -150.97498 2346 ft 135 kts 321°
2026-05-06 00:21 61.74587 -150.98753 2345 ft 135 kts 321°
2026-05-06 00:21 61.75311 -151.00006 2345 ft 134 kts 321°
2026-05-06 00:22 61.76037 -151.01260 2348 ft 135 kts 321°
2026-05-06 00:22 61.76761 -151.02513 2349 ft 135 kts 321°
2026-05-06 00:22 61.77493 -151.03750 2350 ft 141 kts 321°
2026-05-06 00:22 61.78259 -151.04984 2348 ft 136 kts 321°
2026-05-06 00:23 61.79023 -151.06220 2342 ft 140 kts 321°
2026-05-06 00:23 61.79793 -151.07463 2342 ft 139 kts 321°
2026-05-06 00:23 61.80558 -151.08715 2346 ft 139 kts 321°
2026-05-06 00:23 61.81309 -151.09962 2349 ft 138 kts 321°
2026-05-06 00:24 61.82076 -151.11212 2351 ft 141 kts 321°
2026-05-06 00:24 61.82852 -151.12453 2345 ft 139 kts 321°
2026-05-06 00:24 61.83619 -151.13699 2349 ft 138 kts 321°
2026-05-06 00:24 61.84386 -151.14946 2347 ft 137 kts 321°
2026-05-06 00:25 61.85144 -151.16175 2347 ft 141 kts 321°
2026-05-06 00:25 61.85910 -151.17418 2349 ft 139 kts 321°
2026-05-06 00:25 61.86670 -151.18661 2348 ft 139 kts 321°
2026-05-06 00:25 61.87437 -151.19908 2350 ft 140 kts 321°
2026-05-06 00:26 61.88210 -151.21161 2346 ft 138 kts 321°
2026-05-06 00:26 61.88969 -151.22409 2350 ft 138 kts 321°
2026-05-06 00:26 61.89733 -151.23671 2348 ft 141 kts 321°
2026-05-06 00:26 61.90505 -151.24917 2347 ft 140 kts 321°
2026-05-06 00:27 61.91275 -151.26162 2347 ft 139 kts 321°
2026-05-06 00:27 61.92021 -151.27391 2346 ft 136 kts 321°
2026-05-06 00:27 61.92782 -151.28651 2349 ft 139 kts 321°
2026-05-06 00:27 61.93553 -151.29912 2348 ft 138 kts 321°
2026-05-06 00:28 61.94318 -151.31167 2348 ft 136 kts 321°
2026-05-06 00:28 61.95076 -151.32412 2349 ft 139 kts 321°
2026-05-06 00:28 61.95845 -151.33663 2348 ft 140 kts 321°
2026-05-06 00:28 61.96609 -151.34919 2349 ft 138 kts 321°
2026-05-06 00:29 61.97367 -151.36179 2350 ft 138 kts 321°
2026-05-06 00:29 61.98119 -151.37418 2348 ft 137 kts 321°
2026-05-06 00:29 61.98892 -151.38668 2349 ft 139 kts 321°
2026-05-06 00:29 61.99657 -151.39921 2347 ft 138 kts 321°
2026-05-06 00:30 62.00418 -151.41173 2351 ft 139 kts 321°
2026-05-06 00:30 62.01182 -151.42434 2348 ft 140 kts 321°
2026-05-06 00:30 62.01950 -151.43693 2349 ft 137 kts 321°
2026-05-06 00:30 62.02700 -151.44945 2352 ft 136 kts 321°
2026-05-06 00:31 62.03436 -151.46198 2351 ft 134 kts 321°
2026-05-06 00:31 62.04166 -151.47453 2350 ft 135 kts 321°
2026-05-06 00:31 62.04893 -151.48709 2351 ft 136 kts 321°
2026-05-06 00:31 62.05610 -151.49976 2352 ft 136 kts 321°
2026-05-06 00:32 62.06342 -151.51268 2350 ft 137 kts 321°
2026-05-06 00:32 62.07073 -151.52557 2354 ft 136 kts 321°
2026-05-06 00:32 62.07803 -151.53843 2352 ft 135 kts 321°
2026-05-06 00:32 62.08528 -151.55124 2352 ft 136 kts 321°
2026-05-06 00:33 62.09254 -151.56410 2351 ft 137 kts 321°
2026-05-06 00:33 62.09984 -151.57702 2351 ft 136 kts 321°
2026-05-06 00:33 62.10712 -151.58989 2351 ft 135 kts 321°
2026-05-06 00:33 62.11429 -151.60255 2351 ft 136 kts 321°
2026-05-06 00:34 62.12156 -151.61543 2349 ft 137 kts 321°
2026-05-06 00:34 62.12884 -151.62837 2352 ft 137 kts 321°
2026-05-06 00:34 62.13610 -151.64131 2350 ft 135 kts 321°
2026-05-06 00:34 62.14339 -151.65428 2351 ft 135 kts 321°
2026-05-06 00:35 62.15068 -151.66726 2352 ft 135 kts 321°
2026-05-06 00:35 62.15793 -151.68020 2350 ft 134 kts 321°
2026-05-06 00:35 62.16516 -151.69310 2351 ft 135 kts 321°
2026-05-06 00:35 62.17239 -151.70605 2352 ft 136 kts 321°
2026-05-06 00:36 62.17964 -151.71906 2352 ft 135 kts 321°
2026-05-06 00:36 62.18679 -151.73187 2351 ft 134 kts 321°
2026-05-06 00:36 62.19404 -151.74485 2350 ft 136 kts 321°
2026-05-06 00:36 62.20126 -151.75778 2351 ft 136 kts 321°
2026-05-06 00:37 62.20854 -151.77081 2351 ft 136 kts 321°
2026-05-06 00:37 62.21578 -151.78381 2351 ft 135 kts 321°
2026-05-06 00:37 62.22304 -151.79680 2349 ft 136 kts 321°
2026-05-06 00:37 62.23028 -151.80982 2351 ft 135 kts 321°
2026-05-06 00:38 62.23745 -151.82266 2350 ft 137 kts 321°
2026-05-06 00:38 62.24467 -151.83558 2350 ft 135 kts 321°
2026-05-06 00:38 62.25190 -151.84852 2352 ft 135 kts 321°
2026-05-06 00:38 62.25916 -151.86157 2350 ft 134 kts 321°
2026-05-06 00:39 62.26639 -151.87455 2355 ft 137 kts 321°
2026-05-06 00:39 62.27361 -151.88750 2355 ft 137 kts 321°
2026-05-06 00:39 62.28084 -151.90047 2358 ft 135 kts 321°
2026-05-06 00:39 62.28808 -151.91347 2357 ft 135 kts 321°
2026-05-06 00:40 62.29534 -151.92650 2354 ft 134 kts 321°
2026-05-06 00:40 62.30248 -151.93934 2354 ft 137 kts 321°
2026-05-06 00:40 62.30970 -151.95236 2354 ft 136 kts 321°
2026-05-06 00:40 62.31691 -151.96542 2374 ft 133 kts 321°
2026-05-06 00:41 62.32404 -151.97851 2356 ft 135 kts 321°
2026-05-06 00:41 62.33122 -151.99165 2357 ft 135 kts 321°
2026-05-06 00:41 62.33838 -152.00485 2357 ft 136 kts 321°
2026-05-06 00:41 62.34554 -152.01804 2357 ft 135 kts 321°
2026-05-06 00:42 62.35270 -152.03118 2353 ft 136 kts 321°
2026-05-06 00:42 62.35987 -152.04436 2353 ft 135 kts 321°
2026-05-06 00:42 62.36702 -152.05756 2358 ft 136 kts 321°
2026-05-06 00:42 62.37412 -152.07048 2359 ft 136 kts 321°
2026-05-06 00:43 62.38132 -152.08354 2360 ft 136 kts 321°
2026-05-06 00:43 62.38852 -152.09663 2359 ft 135 kts 321°
2026-05-06 00:43 62.39562 -152.11012 2358 ft 136 kts 305°
2026-05-06 00:43 62.40092 -152.12698 2359 ft 135 kts 300°
2026-05-06 00:44 62.40550 -152.14472 2359 ft 135 kts 300°
2026-05-06 00:44 62.41008 -152.16248 2359 ft 136 kts 300°
2026-05-06 00:44 62.41466 -152.18026 2360 ft 135 kts 300°
2026-05-06 00:44 62.41920 -152.19787 2359 ft 136 kts 300°
2026-05-06 00:45 62.42380 -152.21577 2359 ft 136 kts 300°
2026-05-06 00:45 62.42838 -152.23353 2359 ft 136 kts 300°
2026-05-06 00:45 62.43295 -152.25131 2359 ft 135 kts 300°
2026-05-06 00:45 62.43753 -152.26913 2358 ft 135 kts 300°
2026-05-06 00:46 62.44211 -152.28697 2358 ft 137 kts 300°
2026-05-06 00:46 62.44766 -152.30376 2363 ft 138 kts 316°
2026-05-06 00:46 62.45465 -152.31773 2365 ft 136 kts 319°
2026-05-06 00:46 62.46170 -152.33137 2365 ft 135 kts 319°
2026-05-06 00:47 62.46866 -152.34486 2364 ft 137 kts 319°
2026-05-06 00:47 62.47570 -152.35848 2362 ft 137 kts 319°
2026-05-06 00:47 62.48278 -152.37217 2365 ft 135 kts 319°
2026-05-06 00:47 62.48983 -152.38586 2362 ft 135 kts 319°
2026-05-06 00:48 62.49687 -152.39955 2363 ft 137 kts 319°
2026-05-06 00:48 62.50393 -152.41321 2361 ft 138 kts 319°
2026-05-06 00:48 62.51100 -152.42696 2361 ft 137 kts 319°
2026-05-06 00:48 62.51802 -152.44069 2361 ft 136 kts 319°
2026-05-06 00:49 62.52509 -152.45449 2364 ft 136 kts 319°
2026-05-06 00:49 62.53178 -152.46875 2369 ft 136 kts 297°
2026-05-06 00:49 62.53622 -152.48645 2363 ft 138 kts 284°
2026-05-06 00:49 62.53870 -152.50576 2529 ft 132 kts 284°
2026-05-06 00:50 62.54115 -152.52552 2719 ft 136 kts 286°
2026-05-06 00:50 62.54444 -152.54502 3120 ft 145 kts 302°
2026-05-06 00:50 62.55051 -152.56403 3215 ft 161 kts 311°
2026-05-06 00:50 62.55716 -152.58435 3248 ft 172 kts 305°
2026-05-06 00:51 62.56013 -152.61027 2930 ft 177 kts 279°
2026-05-06 00:51 62.56146 -152.63518 3201 ft 156 kts 274°
2026-05-06 00:51 62.56202 -152.65725 3631 ft 146 kts 271°
2026-05-06 00:51 62.56436 -152.67904 3911 ft 153 kts 293°
2026-05-06 00:52 62.56921 -152.69952 3884 ft 149 kts 304°
2026-05-06 00:52 62.57517 -152.71882 3993 ft 160 kts 294°
2026-05-06 00:52 62.57814 -152.74105 4354 ft 135 kts 299°
2026-05-06 00:52 62.58290 -152.75301 5432 ft 111 kts 337°
2026-05-06 00:53 62.59113 -152.76085 5828 ft 140 kts 340°
2026-05-06 00:53 62.60103 -152.76639 6041 ft 161 kts 360°
2026-05-06 00:53 62.61339 -152.76596 4916 ft 190 kts 355°
2026-05-06 00:53 62.62602 -152.77019 4398 ft 177 kts 352°
2026-05-06 00:54 62.63769 -152.77325 4619 ft 167 kts 355°
2026-05-06 00:54 62.64890 -152.77705 4854 ft 163 kts 344°
2026-05-06 00:54 62.65785 -152.79168 5000 ft 156 kts 317°
2026-05-06 00:54 62.66449 -152.81034 5201 ft 164 kts 307°
2026-05-06 00:55 62.67208 -152.83064 4993 ft 179 kts 309°
2026-05-06 00:55 62.67977 -152.85299 4554 ft 189 kts 305°
2026-05-06 00:55 62.68640 -152.87798 3787 ft 183 kts 299°
2026-05-06 00:55 62.69251 -152.89965 3277 ft 154 kts 312°
2026-05-06 00:56 62.70043 -152.91298 3278 ft 138 kts 330°
2026-05-06 00:56 62.70948 -152.92237 3056 ft 145 kts 334°
2026-05-06 00:56 62.71781 -152.93123 3063 ft 122 kts 333°
2026-05-06 00:56 62.72496 -152.93847 2980 ft 103 kts 332°
2026-05-06 00:57 62.73050 -152.94534 2927 ft 82 kts 323°
2026-05-06 00:57 62.73385 -152.95061 2907 ft 42 kts 323°
2026-05-06 00:57 62.73562 -152.95425 2758 ft 38 kts 324°
2026-05-06 00:57 62.73791 -152.95987 2770 ft 72 kts 317°
2026-05-06 00:58 62.74162 -152.96744 2774 ft 72 kts 317°
2026-05-06 00:58 62.74527 -152.97469 2771 ft 72 kts 317°
2026-05-06 00:58 62.74898 -152.98191 2767 ft 71 kts 317°
2026-05-06 00:58 62.75264 -152.98911 2765 ft 71 kts 317°
2026-05-06 00:59 62.75627 -152.99628 2764 ft 70 kts 317°
2026-05-06 00:59 62.75987 -153.00344 2762 ft 70 kts 317°
2026-05-06 00:59 62.76347 -153.01054 2762 ft 70 kts 317°
2026-05-06 00:59 62.76744 -153.01809 2592 ft 84 kts 319°
2026-05-06 01:00 62.77190 -153.02573 2554 ft 80 kts 322°
2026-05-06 01:00 62.77649 -153.03263 2519 ft 75 kts 323°
2026-05-06 01:00 62.78105 -153.03778 2512 ft 76 kts 323°
2026-05-06 01:00 62.78573 -153.04331 2513 ft 75 kts 323°
2026-05-06 01:01 62.79023 -153.04880 2509 ft 74 kts 323°
2026-05-06 01:01 62.79483 -153.05418 2507 ft 76 kts 323°
2026-05-06 01:01 62.79953 -153.05964 2507 ft 77 kts 323°
2026-05-06 01:01 62.80415 -153.06523 2508 ft 76 kts 323°
2026-05-06 01:02 62.80879 -153.07079 2506 ft 77 kts 323°
2026-05-06 01:02 62.81346 -153.07630 2506 ft 78 kts 323°
2026-05-06 01:02 62.81817 -153.08189 2506 ft 78 kts 323°
2026-05-06 01:02 62.82279 -153.08752 2505 ft 78 kts 323°
2026-05-06 01:03 62.82743 -153.09329 2506 ft 76 kts 323°
2026-05-06 01:03 62.83204 -153.09891 2506 ft 76 kts 323°
2026-05-06 01:03 62.83667 -153.10447 2506 ft 77 kts 323°
2026-05-06 01:03 62.84131 -153.11013 2505 ft 76 kts 323°
2026-05-06 01:04 62.84595 -153.11581 2514 ft 76 kts 323°
2026-05-06 01:04 62.85062 -153.12145 2514 ft 76 kts 323°
2026-05-06 01:04 62.85529 -153.12703 2513 ft 76 kts 323°
2026-05-06 01:04 62.86001 -153.13269 2515 ft 78 kts 323°
2026-05-06 01:05 62.86469 -153.13831 2513 ft 77 kts 323°
2026-05-06 01:05 62.86934 -153.14413 2514 ft 78 kts 323°
2026-05-06 01:05 62.87404 -153.14986 2514 ft 78 kts 323°
2026-05-06 01:05 62.87877 -153.15539 2513 ft 78 kts 323°
2026-05-06 01:06 62.88345 -153.16118 2517 ft 77 kts 323°
2026-05-06 01:06 62.88804 -153.16693 2516 ft 76 kts 323°
2026-05-06 01:06 62.89264 -153.17261 2516 ft 75 kts 323°
2026-05-06 01:06 62.89726 -153.17823 2517 ft 75 kts 323°
2026-05-06 01:07 62.90181 -153.18376 2516 ft 74 kts 323°
2026-05-06 01:07 62.90639 -153.18940 2517 ft 75 kts 323°
2026-05-06 01:07 62.91105 -153.19488 2517 ft 76 kts 323°
2026-05-06 01:07 62.91564 -153.20039 2516 ft 75 kts 323°
2026-05-06 01:08 62.92018 -153.20603 2517 ft 77 kts 323°
2026-05-06 01:08 62.92480 -153.21166 2516 ft 75 kts 323°
2026-05-06 01:08 62.92938 -153.21722 2516 ft 75 kts 323°
2026-05-06 01:08 62.93398 -153.22287 2516 ft 75 kts 323°
2026-05-06 01:09 62.93851 -153.22841 2516 ft 75 kts 323°
2026-05-06 01:09 62.94307 -153.23392 2516 ft 75 kts 323°
2026-05-06 01:09 62.94763 -153.23955 2509 ft 77 kts 323°
2026-05-06 01:09 62.95226 -153.24512 2509 ft 76 kts 323°
2026-05-06 01:10 62.95689 -153.25057 2510 ft 75 kts 323°
2026-05-06 01:10 62.96156 -153.25624 2510 ft 76 kts 323°
2026-05-06 01:10 62.96619 -153.26181 2510 ft 76 kts 323°
2026-05-06 01:10 62.97087 -153.26742 2511 ft 77 kts 323°
2026-05-06 01:11 62.97398 -153.27116 2511 ft 76 kts 323°
2026-05-06 01:11 62.98013 -153.27863 2508 ft 78 kts 323°
2026-05-06 01:11 62.98486 -153.28434 2508 ft 78 kts 323°
2026-05-06 01:11 62.98959 -153.28997 2510 ft 76 kts 323°
2026-05-06 01:12 62.99426 -153.29572 2509 ft 77 kts 323°
2026-05-06 01:12 62.99892 -153.30162 2510 ft 78 kts 323°
2026-05-06 01:12 63.00361 -153.30738 2509 ft 78 kts 323°
2026-05-06 01:12 63.00674 -153.31110 2507 ft 76 kts 323°
2026-05-06 01:13 63.01140 -153.31677 2510 ft 76 kts 323°
2026-05-06 01:13 63.01645 -153.32325 2504 ft 104 kts 323°
2026-05-06 01:13 63.02566 -153.33810 2311 ft 133 kts 317°
2026-05-06 01:13 63.03284 -153.35074 2312 ft 133 kts 317°
2026-05-06 01:14 63.04471 -153.37184 2302 ft 131 kts 317°
2026-05-06 01:14 63.05182 -153.38453 2307 ft 131 kts 317°
2026-05-06 01:14 63.05891 -153.39711 2308 ft 132 kts 317°
2026-05-06 01:15 63.06603 -153.40979 2311 ft 133 kts 317°
2026-05-06 01:15 63.07319 -153.42243 2312 ft 131 kts 317°
2026-05-06 01:15 63.08032 -153.43500 2311 ft 131 kts 317°
2026-05-06 01:15 63.08745 -153.44748 2313 ft 130 kts 317°
2026-05-06 01:16 63.09459 -153.46006 2313 ft 132 kts 317°
2026-05-06 01:16 63.10142 -153.47281 2318 ft 126 kts 317°
2026-05-06 01:16 63.10800 -153.48562 2318 ft 125 kts 317°
2026-05-06 01:16 63.11452 -153.49820 2316 ft 126 kts 317°
2026-05-06 01:17 63.12113 -153.51100 2319 ft 126 kts 317°
2026-05-06 01:17 63.12775 -153.52379 2316 ft 127 kts 317°
2026-05-06 01:17 63.13438 -153.53651 2317 ft 125 kts 317°
2026-05-06 01:17 63.14101 -153.54935 2317 ft 127 kts 317°
2026-05-06 01:18 63.14760 -153.56232 2314 ft 126 kts 317°
2026-05-06 01:18 63.15462 -153.57557 2309 ft 131 kts 317°
2026-05-06 01:18 63.16162 -153.58867 2307 ft 131 kts 317°
2026-05-06 01:18 63.16849 -153.60162 2305 ft 133 kts 317°
2026-05-06 01:19 63.17547 -153.61497 2300 ft 131 kts 317°
2026-05-06 01:19 63.18245 -153.62818 2306 ft 129 kts 317°
2026-05-06 01:19 63.18935 -153.64108 2307 ft 132 kts 317°
2026-05-06 01:19 63.19632 -153.65439 2307 ft 131 kts 317°
2026-05-06 01:20 63.20328 -153.66760 2302 ft 131 kts 317°
2026-05-06 01:20 63.21025 -153.68059 2311 ft 132 kts 317°
2026-05-06 01:20 63.21727 -153.69362 2306 ft 132 kts 317°
2026-05-06 01:20 63.22432 -153.70687 2310 ft 134 kts 317°
2026-05-06 01:21 63.23120 -153.71983 2309 ft 132 kts 317°
2026-05-06 01:21 63.23825 -153.73293 2308 ft 133 kts 317°
2026-05-06 01:21 63.24524 -153.74606 2312 ft 131 kts 317°
2026-05-06 01:21 63.25223 -153.75938 2311 ft 132 kts 317°
2026-05-06 01:22 63.25915 -153.77264 2313 ft 131 kts 317°
2026-05-06 01:22 63.26605 -153.78566 2311 ft 132 kts 317°
2026-05-06 01:22 63.27297 -153.79888 2308 ft 130 kts 317°
2026-05-06 01:22 63.27985 -153.81208 2313 ft 132 kts 317°
2026-05-06 01:23 63.28681 -153.82538 2310 ft 134 kts 317°
2026-05-06 01:23 63.29376 -153.83841 2314 ft 130 kts 317°
2026-05-06 01:23 63.30072 -153.85156 2310 ft 132 kts 317°
2026-05-06 01:23 63.30770 -153.86501 2310 ft 132 kts 317°
2026-05-06 01:24 63.31466 -153.87816 2311 ft 131 kts 317°
2026-05-06 01:24 63.32160 -153.89116 2316 ft 133 kts 317°
2026-05-06 01:24 63.32854 -153.90429 2234 ft 132 kts 317°
2026-05-06 01:24 63.33548 -153.91753 2237 ft 131 kts 317°
2026-05-06 01:25 63.34246 -153.93073 2240 ft 130 kts 317°
2026-05-06 01:25 63.34942 -153.94389 2239 ft 132 kts 317°
2026-05-06 01:25 63.35631 -153.95698 2236 ft 132 kts 317°
2026-05-06 01:25 63.36324 -153.97021 2238 ft 130 kts 317°
2026-05-06 01:26 63.36939 -153.98141 2487 ft 101 kts 322°
2026-05-06 01:26 63.37478 -153.99123 2422 ft 101 kts 323°
2026-05-06 01:26 63.38013 -154.00100 2413 ft 102 kts 323°
2026-05-06 01:26 63.38566 -154.01096 2415 ft 100 kts 323°
2026-05-06 01:27 63.39107 -154.02062 2406 ft 97 kts 323°
2026-05-06 01:27 63.39647 -154.03034 2404 ft 98 kts 323°
2026-05-06 01:27 63.40196 -154.04009 2404 ft 100 kts 323°
2026-05-06 01:27 63.40739 -154.04972 2405 ft 102 kts 323°
2026-05-06 01:28 63.41290 -154.05951 2402 ft 103 kts 323°
2026-05-06 01:28 63.41827 -154.06893 2404 ft 97 kts 323°
2026-05-06 01:28 63.42375 -154.07858 2399 ft 101 kts 323°
2026-05-06 01:28 63.42920 -154.08820 2417 ft 100 kts 323°
2026-05-06 01:29 63.43422 -154.09736 2740 ft 94 kts 324°
2026-05-06 01:29 63.43940 -154.10769 2923 ft 107 kts 321°
2026-05-06 01:29 63.44520 -154.11992 2874 ft 117 kts 320°
2026-05-06 01:29 63.45103 -154.13235 2889 ft 116 kts 319°
2026-05-06 01:30 63.45673 -154.14454 2968 ft 111 kts 319°
2026-05-06 01:30 63.46258 -154.15701 2906 ft 123 kts 319°
2026-05-06 01:30 63.46814 -154.16939 3084 ft 98 kts 318°
2026-05-06 01:30 63.47265 -154.18033 3323 ft 95 kts 317°
2026-05-06 01:31 63.47765 -154.19187 3439 ft 111 kts 318°
2026-05-06 01:31 63.48367 -154.20441 3275 ft 123 kts 320°
2026-05-06 01:31 63.48983 -154.21688 3162 ft 114 kts 321°
2026-05-06 01:31 63.49585 -154.22824 3275 ft 110 kts 324°
2026-05-06 01:32 63.50163 -154.23837 3228 ft 107 kts 325°
2026-05-06 01:32 63.50842 -154.24946 2785 ft 116 kts 327°
2026-05-06 01:32 63.51433 -154.25943 2857 ft 98 kts 326°
2026-05-06 01:32 63.51903 -154.26803 2957 ft 82 kts 324°
2026-05-06 01:33 63.52300 -154.27638 3118 ft 74 kts 322°
2026-05-06 01:33 63.52670 -154.28417 3139 ft 72 kts 323°
2026-05-06 01:33 63.53041 -154.29128 3209 ft 69 kts 326°
2026-05-06 01:33 63.53399 -154.29753 3381 ft 61 kts 328°
2026-05-06 01:34 63.53729 -154.30292 3687 ft 59 kts 330°
2026-05-06 01:34 63.54091 -154.30848 3894 ft 68 kts 330°
2026-05-06 01:34 63.54534 -154.31719 4025 ft 100 kts 323°
2026-05-06 01:34 63.55135 -154.32792 4377 ft 129 kts 322°
2026-05-06 01:35 63.55832 -154.34176 3607 ft 125 kts 321°
2026-05-06 01:35 63.56344 -154.35215 3080 ft 75 kts 322°
2026-05-06 01:35 63.56646 -154.35896 2961 ft 58 kts 320°
2026-05-06 01:35 63.56857 -154.36681 2702 ft 58 kts 309°
2026-05-06 01:36 63.57085 -154.37397 2509 ft 55 kts 314°
2026-05-06 01:36 63.57363 -154.38034 2415 ft 67 kts 319°
2026-05-06 01:36 63.57760 -154.38938 2556 ft 93 kts 318°
2026-05-06 01:36 63.58207 -154.39941 2554 ft 88 kts 319°
2026-05-06 01:37 63.58652 -154.40942 2552 ft 90 kts 319°
2026-05-06 01:37 63.59099 -154.41939 2554 ft 91 kts 319°
2026-05-06 01:37 63.59552 -154.42944 2554 ft 91 kts 319°
2026-05-06 01:37 63.59997 -154.43947 2552 ft 90 kts 319°
2026-05-06 01:38 63.60438 -154.44946 2551 ft 91 kts 319°
2026-05-06 01:38 63.60878 -154.45944 2553 ft 93 kts 319°
2026-05-06 01:38 63.61314 -154.46932 2554 ft 92 kts 319°
2026-05-06 01:38 63.61766 -154.47949 2554 ft 92 kts 319°
2026-05-06 01:39 63.62208 -154.48944 2556 ft 92 kts 319°
2026-05-06 01:39 63.62652 -154.49957 2552 ft 91 kts 319°
2026-05-06 01:39 63.63090 -154.50960 2548 ft 90 kts 319°
2026-05-06 01:39 63.63543 -154.51914 2562 ft 89 kts 319°
2026-05-06 01:40 63.64001 -154.52860 2562 ft 91 kts 319°
2026-05-06 01:40 63.64463 -154.53796 2563 ft 89 kts 319°
2026-05-06 01:40 63.64917 -154.54717 2560 ft 87 kts 319°
2026-05-06 01:40 63.65371 -154.55647 2559 ft 90 kts 319°
2026-05-06 01:41 63.65832 -154.56589 2563 ft 89 kts 319°
2026-05-06 01:41 63.66299 -154.57536 2560 ft 89 kts 318°
2026-05-06 01:41 63.66761 -154.58469 2563 ft 90 kts 319°
2026-05-06 01:41 63.67227 -154.59412 2562 ft 91 kts 318°
2026-05-06 01:42 63.67692 -154.60348 2560 ft 90 kts 318°
2026-05-06 01:42 63.68155 -154.61291 2561 ft 91 kts 318°
2026-05-06 01:42 63.68622 -154.62239 2561 ft 90 kts 318°
2026-05-06 01:42 63.69079 -154.63155 2561 ft 91 kts 318°
2026-05-06 01:43 63.69540 -154.64092 2564 ft 90 kts 318°
2026-05-06 01:43 63.70005 -154.65028 2561 ft 92 kts 318°
2026-05-06 01:43 63.70479 -154.65963 2564 ft 91 kts 318°
2026-05-06 01:43 63.70954 -154.66908 2564 ft 92 kts 318°
2026-05-06 01:44 63.71432 -154.67858 2566 ft 90 kts 318°
2026-05-06 01:44 63.71899 -154.68798 2566 ft 89 kts 318°
2026-05-06 01:44 63.72404 -154.69794 2485 ft 101 kts 319°
2026-05-06 01:44 63.72935 -154.70824 2463 ft 101 kts 319°
2026-05-06 01:45 63.73470 -154.71844 2455 ft 101 kts 319°
2026-05-06 01:45 63.74010 -154.72877 2454 ft 101 kts 319°
2026-05-06 01:45 63.74546 -154.73901 2448 ft 100 kts 319°
2026-05-06 01:45 63.75088 -154.74935 2449 ft 103 kts 319°
2026-05-06 01:46 63.75633 -154.75970 2450 ft 103 kts 319°
2026-05-06 01:46 63.76176 -154.77009 2450 ft 103 kts 319°
2026-05-06 01:46 63.76722 -154.78038 2452 ft 101 kts 319°
2026-05-06 01:46 63.77266 -154.79067 2453 ft 103 kts 319°
2026-05-06 01:47 63.77800 -154.80080 2455 ft 101 kts 319°
2026-05-06 01:47 63.78344 -154.81108 2456 ft 102 kts 319°
2026-05-06 01:47 63.78888 -154.82142 2450 ft 103 kts 319°
2026-05-06 01:47 63.79432 -154.83159 2459 ft 102 kts 319°
2026-05-06 01:48 63.79978 -154.84180 2450 ft 101 kts 319°
2026-05-06 01:48 63.80524 -154.85208 2444 ft 100 kts 319°
2026-05-06 01:48 63.81066 -154.86227 2449 ft 102 kts 319°
2026-05-06 01:48 63.81614 -154.87257 2448 ft 102 kts 319°
2026-05-06 01:49 63.82158 -154.88281 2445 ft 102 kts 319°
2026-05-06 01:49 63.82692 -154.89299 2449 ft 102 kts 319°
2026-05-06 01:49 63.83350 -154.90539 2445 ft 102 kts 319°
2026-05-06 01:49 63.83892 -154.91581 2452 ft 101 kts 319°
2026-05-06 01:50 63.84435 -154.92614 2451 ft 103 kts 319°
2026-05-06 01:50 63.84966 -154.93646 2454 ft 102 kts 319°
2026-05-06 01:50 63.85508 -154.94696 2448 ft 101 kts 319°
2026-05-06 01:50 63.86048 -154.95731 2445 ft 101 kts 319°
2026-05-06 01:51 63.86582 -154.96750 2443 ft 103 kts 319°
2026-05-06 01:51 63.87121 -154.97782 2446 ft 101 kts 319°
2026-05-06 01:51 63.87664 -154.98825 2447 ft 103 kts 319°
2026-05-06 01:51 63.88210 -154.99863 2452 ft 103 kts 319°
2026-05-06 01:52 63.88754 -155.00906 2446 ft 103 kts 319°
2026-05-06 01:52 63.89296 -155.01954 2444 ft 103 kts 319°
2026-05-06 01:52 63.89842 -155.02989 2447 ft 103 kts 319°
2026-05-06 01:52 63.90388 -155.04042 2450 ft 103 kts 319°
2026-05-06 01:53 63.90936 -155.05086 2451 ft 102 kts 319°
2026-05-06 01:53 63.91473 -155.06112 2451 ft 101 kts 319°
2026-05-06 01:53 63.92017 -155.07149 2452 ft 102 kts 319°
2026-05-06 01:53 63.92567 -155.08184 2453 ft 103 kts 319°
2026-05-06 01:54 63.93111 -155.09226 2447 ft 104 kts 319°
2026-05-06 01:54 63.93653 -155.10260 2451 ft 101 kts 319°
2026-05-06 01:54 63.94204 -155.11295 2450 ft 101 kts 319°
2026-05-06 01:54 63.94750 -155.12335 2448 ft 102 kts 319°
2026-05-06 01:55 63.95290 -155.13371 2453 ft 102 kts 319°
2026-05-06 01:55 63.95831 -155.14404 2454 ft 100 kts 319°
2026-05-06 01:55 63.96364 -155.15426 2446 ft 102 kts 319°
2026-05-06 01:55 63.96907 -155.16468 2452 ft 103 kts 319°
2026-05-06 01:56 63.97452 -155.17515 2452 ft 102 kts 319°
2026-05-06 01:56 63.97996 -155.18560 2450 ft 102 kts 319°
2026-05-06 01:56 63.98538 -155.19604 2449 ft 101 kts 319°
2026-05-06 01:56 63.99078 -155.20649 2459 ft 103 kts 319°
2026-05-06 01:57 63.99623 -155.21711 2446 ft 104 kts 319°
2026-05-06 01:57 64.00163 -155.22754 2447 ft 103 kts 319°
2026-05-06 01:57 64.00706 -155.23794 2454 ft 100 kts 319°
2026-05-06 01:57 64.01237 -155.24818 2448 ft 102 kts 319°
2026-05-06 01:58 64.01779 -155.25855 2442 ft 102 kts 319°
2026-05-06 01:58 64.02326 -155.26897 2442 ft 104 kts 319°
2026-05-06 01:58 64.02870 -155.27940 2443 ft 102 kts 319°
2026-05-06 01:58 64.03417 -155.28988 2440 ft 103 kts 319°
2026-05-06 01:59 64.03962 -155.30033 2446 ft 101 kts 319°
2026-05-06 01:59 64.04504 -155.31084 2446 ft 102 kts 319°
2026-05-06 01:59 64.05046 -155.32130 2448 ft 103 kts 319°
2026-05-06 01:59 64.05581 -155.33149 2441 ft 100 kts 319°
2026-05-06 02:00 64.06124 -155.34195 2448 ft 103 kts 319°
2026-05-06 02:00 64.06668 -155.35235 2446 ft 103 kts 319°
2026-05-06 02:00 64.07215 -155.36271 2451 ft 101 kts 319°
2026-05-06 02:00 64.07759 -155.37317 2447 ft 103 kts 319°
2026-05-06 02:01 64.08305 -155.38361 2445 ft 100 kts 319°
2026-05-06 02:01 64.08846 -155.39410 2441 ft 104 kts 319°
2026-05-06 02:01 64.09389 -155.40475 2452 ft 102 kts 319°
2026-05-06 02:01 64.09957 -155.41564 2326 ft 118 kts 320°
2026-05-06 02:02 64.10665 -155.42904 2134 ft 138 kts 320°
2026-05-06 02:02 64.11430 -155.44406 2246 ft 147 kts 319°
2026-05-06 02:02 64.12197 -155.45925 2248 ft 146 kts 319°
2026-05-06 02:02 64.12962 -155.47444 2256 ft 143 kts 319°
2026-05-06 02:03 64.13466 -155.48439 2256 ft 146 kts 319°
2026-05-06 02:03 64.14230 -155.49951 2258 ft 146 kts 319°
2026-05-06 02:03 64.14994 -155.51461 2261 ft 145 kts 319°
2026-05-06 02:03 64.15758 -155.52968 2262 ft 142 kts 319°
2026-05-06 02:04 64.16770 -155.54954 2264 ft 146 kts 319°
2026-05-06 02:04 64.17540 -155.56466 2264 ft 146 kts 319°
2026-05-06 02:04 64.18304 -155.57988 2266 ft 144 kts 319°
2026-05-06 02:04 64.19070 -155.59518 2268 ft 146 kts 319°
2026-05-06 02:05 64.19575 -155.60524 2265 ft 147 kts 319°
2026-05-06 02:05 64.20343 -155.62062 2266 ft 144 kts 319°
2026-05-06 02:05 64.21103 -155.63600 2266 ft 148 kts 319°
2026-05-06 02:05 64.21868 -155.65145 2267 ft 146 kts 319°
2026-05-06 02:06 64.22628 -155.66683 2251 ft 144 kts 319°
2026-05-06 02:06 64.23378 -155.68187 2257 ft 144 kts 319°
2026-05-06 02:06 64.24120 -155.69681 2256 ft 142 kts 319°
2026-05-06 02:06 64.24871 -155.71178 2256 ft 146 kts 319°
2026-05-06 02:07 64.25622 -155.72688 2257 ft 143 kts 319°
2026-05-06 02:07 64.26366 -155.74175 2259 ft 143 kts 319°
2026-05-06 02:07 64.27110 -155.75674 2256 ft 143 kts 319°
2026-05-06 02:07 64.27859 -155.77175 2261 ft 142 kts 319°
2026-05-06 02:08 64.28580 -155.78773 2259 ft 144 kts 315°
2026-05-06 02:08 64.29282 -155.80405 2265 ft 144 kts 315°
2026-05-06 02:08 64.29986 -155.82027 2265 ft 142 kts 315°
2026-05-06 02:08 64.30689 -155.83650 2264 ft 143 kts 315°
2026-05-06 02:09 64.31390 -155.85264 2264 ft 143 kts 315°
2026-05-06 02:09 64.32081 -155.86867 2264 ft 142 kts 315°
2026-05-06 02:09 64.32775 -155.88487 2265 ft 142 kts 315°
2026-05-06 02:09 64.33477 -155.90102 2266 ft 145 kts 315°
2026-05-06 02:10 64.34178 -155.91726 2261 ft 143 kts 315°
2026-05-06 02:10 64.34873 -155.93344 2263 ft 144 kts 315°
2026-05-06 02:10 64.35574 -155.94971 2264 ft 143 kts 315°
2026-05-06 02:10 64.36272 -155.96592 2263 ft 143 kts 315°
2026-05-06 02:11 64.36975 -155.98212 2260 ft 142 kts 315°
2026-05-06 02:11 64.37668 -155.99814 2262 ft 141 kts 315°
2026-05-06 02:11 64.38359 -156.01415 2264 ft 143 kts 315°
2026-05-06 02:11 64.39057 -156.03038 2262 ft 142 kts 315°
2026-05-06 02:12 64.39753 -156.04662 2267 ft 144 kts 315°
2026-05-06 02:12 64.40449 -156.06282 2272 ft 142 kts 315°
2026-05-06 02:12 64.41148 -156.07909 2269 ft 144 kts 315°
2026-05-06 02:12 64.41851 -156.09552 2258 ft 146 kts 315°
2026-05-06 02:13 64.42557 -156.11208 2272 ft 145 kts 315°
2026-05-06 02:13 64.43254 -156.12834 2273 ft 142 kts 315°
2026-05-06 02:13 64.43958 -156.14471 2268 ft 145 kts 315°
2026-05-06 02:13 64.44648 -156.16095 2267 ft 141 kts 315°
2026-05-06 02:14 64.45333 -156.17726 2264 ft 141 kts 315°
2026-05-06 02:14 64.46017 -156.19354 2264 ft 141 kts 315°
2026-05-06 02:14 64.46708 -156.20985 2263 ft 142 kts 315°
2026-05-06 02:14 64.47408 -156.22646 2264 ft 141 kts 315°
2026-05-06 02:15 64.48097 -156.24275 2265 ft 139 kts 315°
2026-05-06 02:15 64.48779 -156.25894 2263 ft 144 kts 315°
2026-05-06 02:15 64.49463 -156.27514 2270 ft 141 kts 315°
2026-05-06 02:15 64.50160 -156.29169 2267 ft 142 kts 315°
2026-05-06 02:16 64.50849 -156.30778 2273 ft 140 kts 315°
2026-05-06 02:16 64.51530 -156.32394 2271 ft 141 kts 315°
2026-05-06 02:16 64.52203 -156.34008 2268 ft 142 kts 315°
2026-05-06 02:16 64.52854 -156.35684 2269 ft 143 kts 309°
2026-05-06 02:17 64.53460 -156.37488 2272 ft 141 kts 309°
2026-05-06 02:17 64.54057 -156.39256 2269 ft 140 kts 309°
2026-05-06 02:17 64.54667 -156.41065 2272 ft 141 kts 309°
2026-05-06 02:17 64.55280 -156.42882 2272 ft 143 kts 309°
2026-05-06 02:18 64.55890 -156.44672 2267 ft 142 kts 309°
2026-05-06 02:18 64.56484 -156.46436 2270 ft 139 kts 309°
2026-05-06 02:18 64.57087 -156.48237 2271 ft 142 kts 309°
2026-05-06 02:18 64.57686 -156.50033 2269 ft 141 kts 309°
2026-05-06 02:19 64.58291 -156.51841 2270 ft 142 kts 309°
2026-05-06 02:19 64.58894 -156.53635 2278 ft 141 kts 309°
2026-05-06 02:19 64.59482 -156.55403 2278 ft 138 kts 309°
2026-05-06 02:19 64.60086 -156.57205 2277 ft 141 kts 309°
2026-05-06 02:20 64.61288 -156.60808 2273 ft 141 kts 309°
2026-05-06 02:20 64.61895 -156.62625 2271 ft 142 kts 309°
2026-05-06 02:20 64.62491 -156.64421 2271 ft 141 kts 309°
2026-05-06 02:21 64.63101 -156.66251 2276 ft 143 kts 309°
2026-05-06 02:21 64.63719 -156.68086 2275 ft 142 kts 309°
2026-05-06 02:21 64.64321 -156.69901 2274 ft 141 kts 309°
2026-05-06 02:21 64.64921 -156.71697 2275 ft 141 kts 309°
2026-05-06 02:22 64.65523 -156.73518 2272 ft 142 kts 309°
2026-05-06 02:22 64.66125 -156.75326 2274 ft 140 kts 309°
2026-05-06 02:22 64.66731 -156.77149 2275 ft 140 kts 309°
2026-05-06 02:22 64.67325 -156.78941 2272 ft 142 kts 309°
2026-05-06 02:23 64.67920 -156.80721 2276 ft 140 kts 309°
2026-05-06 02:23 64.68524 -156.82530 2279 ft 140 kts 309°
2026-05-06 02:23 64.69097 -156.84303 1854 ft 135 kts 308°
2026-05-06 02:23 64.69618 -156.85979 2086 ft 122 kts 308°
2026-05-06 02:24 64.70162 -156.87391 1723 ft 114 kts 316°
2026-05-06 02:24 64.70694 -156.88537 1583 ft 95 kts 317°
2026-05-06 02:24 64.71153 -156.89587 1406 ft 85 kts 316°
2026-05-06 02:24 64.71528 -156.90351 1054 ft 62 kts 321°
2026-05-06 02:25 64.71849 -156.90994 838 ft 60 kts 322°
2026-05-06 02:25 64.72124 -156.91670 695 ft 56 kts 319°
2026-05-06 02:25 64.72347 -156.92395 604 ft 53 kts 315°
2026-05-06 02:25 64.72599 -156.93008 693 ft 57 kts 299°
2026-05-06 02:26 64.72834 -156.93693 774 ft 53 kts 292°
2026-05-06 02:26 64.72891 -156.94671 685 ft 71 kts 286°
2026-05-06 02:26 64.72861 -156.95810 884 ft 70 kts 282°
2026-05-06 02:26 64.72977 -156.96854 753 ft 57 kts 348°
2026-05-06 02:27 64.73262 -156.97332 778 ft 46 kts 13°
2026-05-06 02:27 64.73567 -156.97379 729 ft 46 kts
2026-05-06 02:27 64.73679 -156.96957 577 ft 35 kts 105°
2026-05-06 02:27 64.73594 -156.96330 312 ft 37 kts 92°
2026-05-06 02:28 64.73598 -156.95889 216 ft 18 kts 95°
2026-05-06 02:28 64.73592 -156.95670 199 ft 13 kts 92°
2026-05-06 02:28 64.73593 -156.95484 192 ft 8 kts 93°
2026-05-06 02:28 64.73595 -156.95344 193 ft 14 kts 91°
2026-05-06 02:29 64.73599 -156.95071 191 ft 15 kts 92°
2026-05-06 02:29 64.73623 -156.94924 196 ft 6 kts 21°
2026-05-06 02:29 64.73660 -156.94886 196 ft 5 kts
2026-05-06 02:29 64.73694 -156.94886 200 ft 4 kts 11°
2026-05-06 02:30 64.73728 -156.94859 200 ft 7 kts 52°
2026-05-06 02:30 64.73743 -156.94771 194 ft 7 kts 88°
2026-05-06 02:30 64.73746 -156.94640 193 ft 7 kts 94°
2026-05-06 02:30 64.73756 -156.94537 194 ft 6 kts 40°
2026-05-06 02:31 64.73792 -156.94512 206 ft 4 kts 28°
2026-05-06 02:31 64.73812 -156.94484 183 ft 1 kts 92°
2026-05-06 02:31 64.73813 -156.94462 180 ft 0 kts 95°
2026-05-06 02:31 64.73812 -156.94462 181 ft 2 kts 91°